Regional Weather Roundup
Issued by NWS

Home | Current Version | Previous Version | Graphics & Text | Print | Product List | Glossary On
Versions: 1 2 3 4 5 6 7 8 9 10 11 12 13 14 15 16 17 18 19 20 21 22 23 24 25 26 27 28 29 30 31 32 33 34 35 36 37 38 39 40 41 42 43 44 45 46 47 48 49 50
000
ASUS43 KOAX 102202
RWRNE

WEATHER ROUNDUP FOR NEBRASKA
NATIONAL WEATHER SERVICE OMAHA NE
400 PM CST WED FEB 10 2016

NOTES: SATELLITE DATA IS BEING USED TO AUGMENT CLOUD COVER ABOVE
       12000 FEET.
       "FAIR" INDICATES FEW OR NO CLOUDS BELOW 12,000 FEET WITH NO
       SIGNIFICANT WEATHER AND/OR OBSTRUCTIONS TO VISIBILITY.

  * THESE STATIONS DO NOT REPORT WEATHER SUCH AS RAIN...SNOW OR FOG.

NEZ001>004-019>022-054>056-102300-
NEBRASKA PANHANDLE

CITY           SKY/WX    TMP DP  RH WIND       PRES   REMARKS
SCOTTSBLUFF    SUNNY     62  25  24 W16G24    30.01R
ALLIANCE       SUNNY     47  32  56 W15       29.98R
CHADRON        CLOUDY    61  26  26 NW18G29   29.95R
KIMBALL        CLOUDY    56  24  29 NW20G26   30.05R
SIDNEY         CLOUDY    47  29  49 NW14      30.03R
$$

NEZ057>060-069>072-079>082-102300-
SOUTHWEST NEBRASKA

CITY           SKY/WX    TMP DP  RH WIND       PRES   REMARKS
NORTH PLATTE   SUNNY     50  33  52 W7        29.92R
IMPERIAL       SUNNY     52  29  41 NW14      29.96F
MCCOOK         SUNNY     52  30  43 W12       29.94S
$$

NEZ005>010-023>029-035>040-094-102300-
NORTH CENTRAL NEBRASKA

CITY           SKY/WX    TMP DP  RH WIND       PRES   REMARKS
VALENTINE      SUNNY     55  29  36 NW14      29.91R
AINSWORTH      SUNNY     56  28  33 NW23G30   29.90R
BROKEN BOW     SUNNY     58  30  34 NW10      29.86S
ORD            SUNNY     56  32  40 N8        29.84R
$$

NEZ041-046>049-061>064-073>077-083>087-102300-
SOUTH CENTRAL NEBRASKA

CITY           SKY/WX    TMP DP  RH WIND       PRES   REMARKS
GRAND ISLAND   SUNNY     47  31  53 SW6       29.87R
HASTINGS       SUNNY     46  32  58 W8        29.86S
HEBRON         SUNNY     48  34  59 W6        29.88R
KEARNEY *      SUNNY     50  32  50 W9        29.88S
YORK           SUNNY     46  34  61 CALM      29.88R
$$

NEZ011>018-030>034-042>045-102300-
NORTHEAST NEBRASKA

CITY           SKY/WX    TMP DP  RH WIND       PRES   REMARKS
NORFOLK        SUNNY     35  26  69 E9        29.89R WCI  28
BLAIR          SUNNY     35  24  63 NE9       29.91R WCI  28
COLUMBUS *     SUNNY     36  21  55 E10       29.90R WCI  28
FREMONT        SUNNY     34  22  61 NE3       29.92R
TEKAMAH        SUNNY     33  23  66 E8        29.94S WCI  26
$$

NEZ050>053-065>068-078-088>093-102300-
SOUTHEAST NEBRASKA

CITY           SKY/WX    TMP DP  RH WIND       PRES   REMARKS
LINCOLN        SUNNY     39  28  64 NE8       29.92R WCI  33
OMAHA EPPLEY   MOSUNNY   37  23  56 E6        29.93R WCI  32
BEATRICE       SUNNY     48  32  53 N6        29.88R
FALLS CITY     SUNNY     52  28  39 N6        29.89R
$$

NEZ044-045-051>053-067-102300-
OMAHA AREA

CITY           SKY/WX    TMP DP  RH WIND       PRES   REMARKS
OMAHA EPPLEY   MOSUNNY   37  23  56 E6        29.93R WCI  32
BLAIR          SUNNY     35  24  63 NE9       29.91R WCI  28
FREMONT        SUNNY     34  22  61 NE3       29.92R
OFFUTT AFB     SUNNY     40  24  52 NE7       29.91S
$$



USA.gov is the U.S. government's official web portal to all federal, state and local government web resources and services.